Time,TemperatureF,DewpointF,PressureIn,WindDirection,WindDirectionDegrees,WindSpeedMPH,WindSpeedGustMPH,Humidity,HourlyPrecipIn,Conditions,Clouds,dailyrainin,SolarRadiationWatts/m^2,SoftwareType,DateUTC
2013-08-30 00:04:00,80.6,77.0,29.94,SSW,198,0.0,0.0,89,0.00,,,0.00,0.0,meteobridge,2013-08-30 05:04:00,
2013-08-30 00:09:00,80.4,76.8,29.94,SSE,168,0.0,0.0,89,0.00,,,0.00,0.0,meteobridge,2013-08-30 05:09:00,
2013-08-30 00:15:00,80.1,76.5,29.94,South,170,0.0,0.0,89,0.00,,,0.00,0.0,meteobridge,2013-08-30 05:15:00,
2013-08-30 00:20:00,79.9,76.3,29.94,South,171,0.0,0.0,89,0.00,,,0.00,0.0,meteobridge,2013-08-30 05:20:00,
2013-08-30 00:25:00,79.7,76.5,29.94,South,173,0.0,0.0,90,0.00,,,0.00,0.0,meteobridge,2013-08-30 05:25:00,
2013-08-30 00:30:00,79.5,76.3,29.94,South,174,0.0,0.0,90,0.00,,,0.00,0.0,meteobridge,2013-08-30 05:30:00,
2013-08-30 00:36:00,79.5,76.6,29.94,South,174,0.0,0.0,91,0.00,,,0.00,0.0,meteobridge,2013-08-30 05:36:00,
2013-08-30 00:41:00,79.5,76.6,29.94,South,175,0.0,0.0,91,0.00,,,0.00,0.0,meteobridge,2013-08-30 05:41:00,
2013-08-30 00:46:00,79.5,76.6,29.94,South,188,0.0,0.0,91,0.00,,,0.00,0.0,meteobridge,2013-08-30 05:46:00,
2013-08-30 00:51:00,79.9,77.4,29.94,South,190,0.0,0.0,92,0.00,,,0.00,0.0,meteobridge,2013-08-30 05:51:00,
2013-08-30 00:56:00,79.9,77.4,29.94,South,188,0.0,0.0,92,0.00,,,0.00,0.0,meteobridge,2013-08-30 05:56:00,
2013-08-30 01:01:00,80.1,77.5,29.94,South,188,0.0,0.0,92,0.00,,,0.00,0.0,meteobridge,2013-08-30 06:01:00,
2013-08-30 01:06:00,80.1,77.5,29.94,SSW,205,0.0,0.0,92,0.00,,,0.00,0.0,meteobridge,2013-08-30 06:06:00,
2013-08-30 01:11:00,80.2,77.7,29.94,South,188,0.0,4.0,92,0.00,,,0.00,0.0,meteobridge,2013-08-30 06:11:00,
2013-08-30 01:17:00,80.1,77.5,29.94,SSE,168,0.0,0.0,92,0.00,,,0.00,0.0,meteobridge,2013-08-30 06:17:00,
2013-08-30 01:22:00,79.9,77.0,29.94,South,179,0.0,0.0,91,0.00,,,0.00,0.0,meteobridge,2013-08-30 06:22:00,
2013-08-30 01:27:00,79.3,76.5,29.94,South,173,0.0,0.0,91,0.00,,,0.00,0.0,meteobridge,2013-08-30 06:27:00,
2013-08-30 01:33:00,79.2,76.6,29.93,South,173,0.0,0.0,92,0.00,,,0.00,0.0,meteobridge,2013-08-30 06:33:00,
2013-08-30 01:38:00,79.2,76.6,29.93,South,173,0.0,0.0,92,0.00,,,0.00,0.0,meteobridge,2013-08-30 06:38:00,
2013-08-30 01:43:00,79.0,76.5,29.93,South,188,0.0,0.0,92,0.00,,,0.00,0.0,meteobridge,2013-08-30 06:43:00,
2013-08-30 01:48:00,79.0,76.8,29.94,South,187,0.0,0.0,93,0.00,,,0.00,0.0,meteobridge,2013-08-30 06:48:00,
2013-08-30 01:53:00,79.0,76.8,29.94,South,186,0.0,0.0,93,0.00,,,0.00,0.0,meteobridge,2013-08-30 06:53:00,
2013-08-30 01:59:00,79.0,76.8,29.93,South,185,0.0,0.0,93,0.00,,,0.00,0.0,meteobridge,2013-08-30 06:59:00,
2013-08-30 02:04:00,79.0,76.8,29.93,South,185,0.0,0.0,93,0.00,,,0.00,0.0,meteobridge,2013-08-30 07:04:00,
2013-08-30 02:09:00,78.6,76.5,29.93,South,185,0.0,0.0,93,0.00,,,0.00,0.0,meteobridge,2013-08-30 07:09:00,
2013-08-30 02:15:00,78.4,76.3,29.94,South,185,0.0,0.0,93,0.00,,,0.00,0.0,meteobridge,2013-08-30 07:15:00,
2013-08-30 02:20:00,78.4,76.3,29.94,South,185,0.0,0.0,93,0.00,,,0.00,0.0,meteobridge,2013-08-30 07:20:00,
2013-08-30 02:25:00,78.4,76.3,29.94,South,185,0.0,0.0,93,0.00,,,0.00,0.0,meteobridge,2013-08-30 07:25:00,
2013-08-30 02:31:00,78.3,76.1,29.94,South,185,0.0,0.0,93,0.00,,,0.00,0.0,meteobridge,2013-08-30 07:31:00,
2013-08-30 02:36:00,78.3,76.5,29.94,South,185,0.0,0.0,94,0.00,,,0.00,0.0,meteobridge,2013-08-30 07:36:00,
2013-08-30 02:41:00,78.1,76.3,29.94,South,185,0.0,0.0,94,0.00,,,0.00,0.0,meteobridge,2013-08-30 07:41:00,
2013-08-30 02:46:00,78.1,76.3,29.94,South,185,0.0,0.0,94,0.00,,,0.00,0.0,meteobridge,2013-08-30 07:46:00,
2013-08-30 02:52:00,78.1,76.3,29.94,South,185,0.0,0.0,94,0.00,,,0.00,0.0,meteobridge,2013-08-30 07:52:00,
2013-08-30 02:57:00,77.9,76.1,29.94,South,185,0.0,0.0,94,0.00,,,0.00,0.0,meteobridge,2013-08-30 07:57:00,
2013-08-30 03:02:00,77.7,75.9,29.94,South,185,0.0,0.0,94,0.00,,,0.00,0.0,meteobridge,2013-08-30 08:02:00,
2013-08-30 03:07:00,77.7,75.9,29.94,South,185,0.0,0.0,94,0.00,,,0.00,0.0,meteobridge,2013-08-30 08:07:00,
2013-08-30 03:12:00,77.7,75.9,29.94,South,185,0.0,0.0,94,0.00,,,0.00,0.0,meteobridge,2013-08-30 08:12:00,
2013-08-30 03:18:00,77.7,76.1,29.94,South,185,0.0,0.0,95,0.00,,,0.00,0.0,meteobridge,2013-08-30 08:18:00,
2013-08-30 03:23:00,77.7,76.1,29.94,South,185,0.0,0.0,95,0.00,,,0.00,0.0,meteobridge,2013-08-30 08:23:00,
2013-08-30 03:28:00,77.7,76.1,29.94,South,184,0.0,0.0,95,0.00,,,0.00,0.0,meteobridge,2013-08-30 08:28:00,
2013-08-30 03:34:00,77.7,76.1,29.94,South,184,0.0,0.0,95,0.00,,,0.00,0.0,meteobridge,2013-08-30 08:34:00,
2013-08-30 03:39:00,77.7,76.1,29.94,South,184,0.0,0.0,95,0.00,,,0.00,0.0,meteobridge,2013-08-30 08:39:00,
2013-08-30 03:44:00,77.7,76.1,29.94,South,184,0.0,0.0,95,0.00,,,0.00,0.0,meteobridge,2013-08-30 08:44:00,
2013-08-30 03:49:00,77.7,76.1,29.94,South,184,0.0,0.0,95,0.00,,,0.00,0.0,meteobridge,2013-08-30 08:49:00,
2013-08-30 03:55:00,77.5,75.9,29.94,South,184,0.0,0.0,95,0.00,,,0.00,0.0,meteobridge,2013-08-30 08:55:00,
2013-08-30 04:00:00,77.5,75.9,29.94,South,184,0.0,0.0,95,0.00,,,0.00,0.0,meteobridge,2013-08-30 09:00:00,
2013-08-30 04:05:00,77.5,75.9,29.94,South,184,0.0,0.0,95,0.00,,,0.00,0.0,meteobridge,2013-08-30 09:05:00,
2013-08-30 04:10:00,77.7,76.1,29.94,South,184,0.0,0.0,95,0.00,,,0.00,0.0,meteobridge,2013-08-30 09:10:00,
2013-08-30 04:16:00,77.7,76.1,29.94,South,184,0.0,0.0,95,0.00,,,0.00,0.0,meteobridge,2013-08-30 09:16:00,
2013-08-30 04:21:00,77.7,76.1,29.94,South,184,0.0,0.0,95,0.00,,,0.00,0.0,meteobridge,2013-08-30 09:21:00,
2013-08-30 04:26:00,78.1,76.5,29.94,South,184,0.0,0.0,95,0.00,,,0.00,0.0,meteobridge,2013-08-30 09:26:00,
2013-08-30 04:31:00,78.3,77.0,29.94,South,185,0.0,0.0,96,0.00,,,0.00,0.0,meteobridge,2013-08-30 09:31:00,
2013-08-30 04:37:00,78.8,77.5,29.94,SSW,202,2.0,4.9,96,0.00,,,0.00,0.0,meteobridge,2013-08-30 09:37:00,
2013-08-30 04:42:00,79.2,77.5,29.94,South,190,0.0,0.0,95,0.00,,,0.00,0.0,meteobridge,2013-08-30 09:42:00,
2013-08-30 04:47:00,79.3,77.7,29.94,SSW,203,0.0,0.0,95,0.00,,,0.00,0.0,meteobridge,2013-08-30 09:47:00,
2013-08-30 04:52:00,79.3,77.7,29.94,SSW,192,0.0,4.9,95,0.00,,,0.00,0.0,meteobridge,2013-08-30 09:52:00,
2013-08-30 04:57:00,79.2,77.4,29.94,South,176,0.0,0.0,94,0.00,,,0.00,0.0,meteobridge,2013-08-30 09:57:00,
2013-08-30 05:02:00,78.8,77.0,29.94,South,177,0.0,0.0,94,0.00,,,0.00,0.0,meteobridge,2013-08-30 10:02:00,
2013-08-30 05:07:00,78.8,77.0,29.94,South,178,0.0,0.0,94,0.00,,,0.00,0.0,meteobridge,2013-08-30 10:07:00,
2013-08-30 05:13:00,78.6,76.8,29.94,South,178,0.0,0.0,94,0.00,,,0.00,0.0,meteobridge,2013-08-30 10:13:00,
2013-08-30 05:18:00,78.4,76.6,29.93,South,178,0.0,0.0,94,0.00,,,0.00,0.0,meteobridge,2013-08-30 10:18:00,
2013-08-30 05:23:00,78.4,76.6,29.93,South,178,0.0,0.0,94,0.00,,,0.00,0.0,meteobridge,2013-08-30 10:23:00,
2013-08-30 05:28:00,78.4,76.8,29.93,South,178,0.0,0.0,95,0.00,,,0.00,0.0,meteobridge,2013-08-30 10:28:00,
2013-08-30 05:33:00,78.8,77.2,29.94,SSW,197,0.0,2.9,95,0.00,,,0.00,0.0,meteobridge,2013-08-30 10:33:00,
2013-08-30 05:38:00,79.2,77.5,29.94,SSW,211,0.0,2.9,95,0.00,,,0.00,0.0,meteobridge,2013-08-30 10:38:00,
2013-08-30 05:43:00,79.5,77.9,29.94,SSW,211,2.0,2.0,95,0.00,,,0.00,0.0,meteobridge,2013-08-30 10:43:00,
2013-08-30 05:49:00,79.7,77.9,29.94,South,190,0.0,4.9,94,0.00,,,0.00,0.0,meteobridge,2013-08-30 10:49:00,
2013-08-30 05:54:00,79.9,78.1,29.94,West,260,0.0,0.9,94,0.00,,,0.00,0.0,meteobridge,2013-08-30 10:54:00,
2013-08-30 05:59:00,79.9,78.1,29.94,SW,223,0.0,0.0,94,0.00,,,0.00,0.0,meteobridge,2013-08-30 10:59:00,
2013-08-30 06:04:00,79.9,77.7,29.94,SW,223,0.0,0.0,93,0.00,,,0.00,0.0,meteobridge,2013-08-30 11:04:00,
2013-08-30 06:10:00,79.7,77.5,29.94,SSW,209,0.0,0.0,93,0.00,,,0.00,0.0,meteobridge,2013-08-30 11:10:00,
2013-08-30 06:15:00,79.5,77.4,29.95,WSW,257,0.0,0.0,93,0.00,,,0.00,0.0,meteobridge,2013-08-30 11:15:00,
2013-08-30 06:20:00,79.2,77.0,29.95,WSW,257,0.0,0.0,93,0.00,,,0.00,0.0,meteobridge,2013-08-30 11:20:00,
2013-08-30 06:25:00,79.0,76.8,29.95,WSW,257,0.0,0.0,93,0.00,,,0.00,0.0,meteobridge,2013-08-30 11:25:00,
2013-08-30 06:31:00,78.6,76.5,29.95,West,261,0.0,0.0,93,0.00,,,0.00,0.0,meteobridge,2013-08-30 11:31:00,
2013-08-30 06:36:00,78.6,76.5,29.95,West,261,0.0,0.0,93,0.00,,,0.00,0.0,meteobridge,2013-08-30 11:36:00,
2013-08-30 06:41:00,78.3,76.1,29.95,West,261,0.0,0.0,93,0.00,,,0.00,0.0,meteobridge,2013-08-30 11:41:00,
2013-08-30 06:46:00,78.1,75.9,29.95,West,261,0.0,0.0,93,0.00,,,0.00,0.0,meteobridge,2013-08-30 11:46:00,
2013-08-30 06:52:00,78.1,75.9,29.95,West,261,0.0,0.0,93,0.00,,,0.00,0.0,meteobridge,2013-08-30 11:52:00,
2013-08-30 06:57:00,78.1,75.9,29.95,West,261,0.0,0.0,93,0.00,,,0.00,0.0,meteobridge,2013-08-30 11:57:00,
2013-08-30 07:02:00,78.1,75.9,29.95,West,265,0.0,0.0,93,0.00,,,0.00,0.0,meteobridge,2013-08-30 12:02:00,
2013-08-30 07:07:00,78.1,76.3,29.95,WNW,289,0.0,0.0,94,0.00,,,0.00,5.0,meteobridge,2013-08-30 12:07:00,
2013-08-30 07:12:00,78.1,75.9,29.95,WNW,289,0.0,0.0,93,0.00,,,0.00,9.0,meteobridge,2013-08-30 12:12:00,
2013-08-30 07:18:00,78.1,76.3,29.96,WNW,288,0.0,0.0,94,0.00,,,0.00,14.0,meteobridge,2013-08-30 12:18:00,
2013-08-30 07:23:00,78.1,76.3,29.96,WNW,288,0.0,0.0,94,0.00,,,0.00,19.0,meteobridge,2013-08-30 12:23:00,
2013-08-30 07:28:00,78.1,76.3,29.96,WNW,288,0.0,0.0,94,0.00,,,0.00,32.0,meteobridge,2013-08-30 12:28:00,
2013-08-30 07:33:00,78.1,76.3,29.96,WNW,286,0.0,0.0,94,0.00,,,0.00,40.0,meteobridge,2013-08-30 12:33:00,
2013-08-30 07:39:00,78.1,76.3,29.96,WNW,286,0.0,0.0,94,0.00,,,0.00,47.0,meteobridge,2013-08-30 12:39:00,
2013-08-30 07:44:00,78.1,76.3,29.97,WNW,290,0.0,0.0,94,0.00,,,0.00,58.0,meteobridge,2013-08-30 12:44:00,
2013-08-30 07:49:00,78.1,76.3,29.97,WNW,286,0.0,0.0,94,0.00,,,0.00,62.0,meteobridge,2013-08-30 12:49:00,
2013-08-30 07:54:00,78.3,76.5,29.97,West,270,0.0,0.0,94,0.00,,,0.00,53.0,meteobridge,2013-08-30 12:54:00,
2013-08-30 07:59:00,78.3,76.1,29.97,West,277,0.0,0.0,93,0.00,,,0.00,79.0,meteobridge,2013-08-30 12:59:00,
2013-08-30 08:04:00,78.4,76.6,29.97,WNW,287,0.0,0.0,94,0.00,,,0.00,109.0,meteobridge,2013-08-30 13:04:00,
2013-08-30 08:09:00,78.6,76.5,29.97,WNW,293,0.0,0.0,93,0.00,,,0.00,130.0,meteobridge,2013-08-30 13:09:00,
2013-08-30 08:14:00,78.6,76.5,29.97,WNW,291,0.0,0.0,93,0.00,,,0.00,151.0,meteobridge,2013-08-30 13:14:00,
2013-08-30 08:19:00,78.8,76.6,29.97,WNW,289,0.0,0.0,93,0.00,,,0.00,149.0,meteobridge,2013-08-30 13:19:00,
2013-08-30 08:24:00,79.2,77.0,29.97,WNW,290,0.0,0.0,93,0.00,,,0.00,176.0,meteobridge,2013-08-30 13:24:00,
2013-08-30 08:30:00,79.3,77.2,29.97,WNW,294,0.0,2.0,93,0.00,,,0.00,195.0,meteobridge,2013-08-30 13:30:00,
2013-08-30 08:35:00,79.5,77.0,29.97,WNW,289,0.9,4.0,92,0.00,,,0.00,211.0,meteobridge,2013-08-30 13:35:00,
2013-08-30 08:40:00,79.9,77.4,29.97,WNW,292,0.0,2.0,92,0.00,,,0.00,229.0,meteobridge,2013-08-30 13:40:00,
2013-08-30 08:45:00,80.1,77.2,29.98,WNW,284,0.0,2.0,91,0.00,,,0.00,258.0,meteobridge,2013-08-30 13:45:00,
2013-08-30 08:50:00,80.4,77.5,29.98,WNW,296,0.0,2.0,91,0.00,,,0.00,274.0,meteobridge,2013-08-30 13:50:00,
2013-08-30 08:55:00,80.8,77.9,29.98,West,278,0.0,0.0,91,0.00,,,0.00,292.0,meteobridge,2013-08-30 13:55:00,
2013-08-30 09:00:00,81.0,78.1,29.98,West,265,0.0,0.0,91,0.00,,,0.00,309.0,meteobridge,2013-08-30 14:00:00,
2013-08-30 09:05:00,81.3,78.1,29.98,WNW,285,0.0,0.0,90,0.00,,,0.00,348.0,meteobridge,2013-08-30 14:05:00,
2013-08-30 09:11:00,81.9,78.3,29.98,WNW,298,0.0,0.0,89,0.00,,,0.00,406.0,meteobridge,2013-08-30 14:11:00,
2013-08-30 09:16:00,82.2,78.3,29.98,WNW,282,2.0,4.0,88,0.00,,,0.00,383.0,meteobridge,2013-08-30 14:16:00,
2013-08-30 09:21:00,82.4,78.4,29.98,WNW,288,0.0,0.9,88,0.00,,,0.00,394.0,meteobridge,2013-08-30 14:21:00,
2013-08-30 09:26:00,82.8,78.4,29.98,West,266,0.0,0.0,87,0.00,,,0.00,406.0,meteobridge,2013-08-30 14:26:00,
2013-08-30 09:31:00,83.1,78.8,29.98,West,278,0.0,0.9,87,0.00,,,0.00,424.0,meteobridge,2013-08-30 14:31:00,
2013-08-30 09:36:00,83.3,78.6,29.98,WNW,282,0.0,0.0,86,0.00,,,0.00,431.0,meteobridge,2013-08-30 14:36:00,
2013-08-30 09:41:00,83.5,78.4,29.98,West,259,0.0,2.9,85,0.00,,,0.00,457.0,meteobridge,2013-08-30 14:41:00,
2013-08-30 09:46:00,83.8,79.2,29.98,SW,225,0.0,0.0,86,0.00,,,0.00,478.0,meteobridge,2013-08-30 14:46:00,
2013-08-30 09:51:00,83.8,78.4,29.98,WSW,255,0.0,0.0,84,0.00,,,0.00,483.0,meteobridge,2013-08-30 14:51:00,
2013-08-30 09:56:00,84.0,78.6,29.98,WSW,244,0.0,0.0,84,0.00,,,0.00,510.0,meteobridge,2013-08-30 14:56:00,
2013-08-30 10:01:00,84.6,79.5,29.98,West,271,0.0,0.0,85,0.00,,,0.00,531.0,meteobridge,2013-08-30 15:01:00,
2013-08-30 10:06:00,84.9,79.2,29.98,WSW,252,0.0,0.0,83,0.00,,,0.00,545.0,meteobridge,2013-08-30 15:06:00,
2013-08-30 10:11:00,84.9,78.8,29.98,SW,236,0.0,0.0,82,0.00,,,0.00,563.0,meteobridge,2013-08-30 15:11:00,
2013-08-30 10:16:00,85.5,80.1,29.98,WSW,254,0.0,0.0,84,0.00,,,0.00,575.0,meteobridge,2013-08-30 15:16:00,
2013-08-30 10:21:00,85.5,79.3,29.98,WSW,254,0.0,0.0,82,0.00,,,0.00,598.0,meteobridge,2013-08-30 15:21:00,
2013-08-30 10:27:00,85.5,78.3,29.98,WSW,242,0.0,4.0,79,0.00,,,0.00,592.0,meteobridge,2013-08-30 15:27:00,
2013-08-30 10:32:00,85.6,79.5,29.98,SW,216,2.9,2.9,82,0.00,,,0.00,619.0,meteobridge,2013-08-30 15:32:00,
2013-08-30 10:37:00,85.8,79.0,29.98,SW,215,0.0,4.0,80,0.00,,,0.00,636.0,meteobridge,2013-08-30 15:37:00,
2013-08-30 10:42:00,86.2,78.4,29.98,SW,227,0.0,2.9,78,0.00,,,0.00,643.0,meteobridge,2013-08-30 15:42:00,
2013-08-30 10:47:00,86.4,78.3,29.98,SSW,205,0.0,4.0,77,0.00,,,0.00,668.0,meteobridge,2013-08-30 15:47:00,
2013-08-30 10:52:00,86.4,78.6,29.98,SSW,202,0.0,4.9,78,0.00,,,0.00,680.0,meteobridge,2013-08-30 15:52:00,
2013-08-30 10:57:00,86.5,78.8,29.98,SSW,205,2.9,6.0,78,0.00,,,0.00,694.0,meteobridge,2013-08-30 15:57:00,
2013-08-30 11:02:00,86.4,78.6,29.98,SW,217,0.9,4.0,78,0.00,,,0.00,705.0,meteobridge,2013-08-30 16:02:00,
2013-08-30 11:07:00,86.4,78.3,29.98,SSW,211,0.0,6.0,77,0.00,,,0.00,719.0,meteobridge,2013-08-30 16:07:00,
2013-08-30 11:12:00,86.5,78.1,29.98,SSW,212,2.9,6.0,76,0.00,,,0.00,721.0,meteobridge,2013-08-30 16:12:00,
2013-08-30 11:17:00,86.7,78.6,29.98,SSW,206,2.0,4.9,77,0.00,,,0.00,729.0,meteobridge,2013-08-30 16:17:00,
2013-08-30 11:22:00,86.9,77.5,29.98,SSW,206,2.0,6.0,74,0.00,,,0.00,751.0,meteobridge,2013-08-30 16:22:00,
2013-08-30 11:27:00,86.9,78.4,29.98,SSW,202,4.0,4.9,76,0.00,,,0.00,758.0,meteobridge,2013-08-30 16:27:00,
2013-08-30 11:32:00,87.1,77.7,29.98,SSW,203,4.9,6.0,74,0.00,,,0.00,761.0,meteobridge,2013-08-30 16:32:00,
2013-08-30 11:37:00,87.3,77.5,29.98,SSW,207,4.0,4.0,73,0.00,,,0.00,779.0,meteobridge,2013-08-30 16:37:00,
2013-08-30 11:42:00,87.4,75.9,29.98,SW,222,0.0,4.0,69,0.00,,,0.00,789.0,meteobridge,2013-08-30 16:42:00,
2013-08-30 11:47:00,87.8,78.1,29.97,SSW,206,2.9,4.9,73,0.00,,,0.00,796.0,meteobridge,2013-08-30 16:47:00,
2013-08-30 11:52:00,88.2,77.5,29.97,SSW,211,4.9,6.0,71,0.00,,,0.00,805.0,meteobridge,2013-08-30 16:52:00,
2013-08-30 11:57:00,88.2,77.5,29.97,SSW,194,4.9,6.9,71,0.00,,,0.00,824.0,meteobridge,2013-08-30 16:57:00,
2013-08-30 12:03:00,88.3,79.0,29.97,SW,224,0.0,2.9,74,0.00,,,0.00,759.0,meteobridge,2013-08-30 17:03:00,
2013-08-30 12:08:00,88.2,77.5,29.97,SSW,200,2.9,4.9,71,0.00,,,0.00,844.0,meteobridge,2013-08-30 17:08:00,
2013-08-30 12:13:00,88.2,77.2,29.97,SSW,213,0.0,2.0,70,0.00,,,0.00,494.0,meteobridge,2013-08-30 17:13:00,
2013-08-30 12:18:00,88.3,77.4,29.97,SW,217,0.0,4.0,70,0.00,,,0.00,870.0,meteobridge,2013-08-30 17:18:00,
2013-08-30 12:23:00,88.3,76.8,29.97,SSW,196,0.0,4.9,69,0.00,,,0.00,865.0,meteobridge,2013-08-30 17:23:00,
2013-08-30 12:28:00,88.9,77.0,29.97,SSW,200,0.0,4.9,68,0.00,,,0.00,840.0,meteobridge,2013-08-30 17:28:00,
2013-08-30 12:34:00,89.1,77.2,29.97,SSW,207,0.0,0.0,68,0.00,,,0.00,847.0,meteobridge,2013-08-30 17:34:00,
2013-08-30 12:39:00,89.2,77.7,29.97,SSW,212,0.0,0.0,69,0.00,,,0.00,872.0,meteobridge,2013-08-30 17:39:00,
2013-08-30 12:44:00,89.1,76.6,29.96,SSW,207,0.0,4.0,67,0.00,,,0.00,889.0,meteobridge,2013-08-30 17:44:00,
2013-08-30 12:49:00,89.8,78.3,29.96,SW,219,0.0,0.0,69,0.00,,,0.00,895.0,meteobridge,2013-08-30 17:49:00,
2013-08-30 12:54:00,90.1,76.8,29.96,WSW,250,0.0,0.0,65,0.00,,,0.00,912.0,meteobridge,2013-08-30 17:54:00,
2013-08-30 12:59:00,90.0,77.5,29.95,WSW,249,0.0,2.0,67,0.00,,,0.00,905.0,meteobridge,2013-08-30 17:59:00,
2013-08-30 13:04:00,90.1,78.1,29.95,WSW,251,0.0,0.0,68,0.00,,,0.00,882.0,meteobridge,2013-08-30 18:04:00,
2013-08-30 13:09:00,90.1,77.7,29.95,WSW,254,0.0,0.0,67,0.00,,,0.00,888.0,meteobridge,2013-08-30 18:09:00,
2013-08-30 13:14:00,90.5,78.1,29.95,WSW,257,0.0,0.9,67,0.00,,,0.00,895.0,meteobridge,2013-08-30 18:14:00,
2013-08-30 13:19:00,90.1,77.2,29.95,WSW,246,0.0,2.0,66,0.00,,,0.00,888.0,meteobridge,2013-08-30 18:19:00,
2013-08-30 13:24:00,90.1,78.1,29.95,WSW,248,0.0,0.0,68,0.00,,,0.00,896.0,meteobridge,2013-08-30 18:24:00,
2013-08-30 13:29:00,90.7,78.3,29.94,SW,219,0.0,0.0,67,0.00,,,0.00,898.0,meteobridge,2013-08-30 18:29:00,
2013-08-30 13:34:00,90.9,77.5,29.94,SSW,210,0.0,2.9,65,0.00,,,0.00,896.0,meteobridge,2013-08-30 18:34:00,
2013-08-30 13:39:00,91.2,77.4,29.94,WSW,251,0.0,0.0,64,0.00,,,0.00,911.0,meteobridge,2013-08-30 18:39:00,
2013-08-30 13:44:00,91.4,77.9,29.93,SW,234,0.0,0.0,65,0.00,,,0.00,893.0,meteobridge,2013-08-30 18:44:00,
2013-08-30 13:50:00,91.6,76.6,29.93,WSW,256,0.0,0.0,62,0.00,,,0.00,912.0,meteobridge,2013-08-30 18:50:00,
2013-08-30 13:55:00,91.8,77.4,29.93,WSW,244,0.0,2.9,63,0.00,,,0.00,898.0,meteobridge,2013-08-30 18:55:00,
2013-08-30 14:00:00,91.2,77.4,29.93,WSW,255,0.0,0.0,64,0.00,,,0.00,907.0,meteobridge,2013-08-30 19:00:00,
2013-08-30 14:05:00,92.1,77.7,29.93,WSW,252,0.0,0.0,63,0.00,,,0.00,898.0,meteobridge,2013-08-30 19:05:00,
2013-08-30 14:10:00,92.3,77.9,29.93,West,260,0.0,0.0,63,0.00,,,0.00,882.0,meteobridge,2013-08-30 19:10:00,
2013-08-30 14:15:00,92.1,77.2,29.92,WSW,252,0.0,0.0,62,0.00,,,0.00,891.0,meteobridge,2013-08-30 19:15:00,
2013-08-30 14:20:00,92.5,78.1,29.92,WSW,242,0.9,0.9,63,0.00,,,0.00,888.0,meteobridge,2013-08-30 19:20:00,
2013-08-30 14:25:00,92.1,78.3,29.92,SSW,210,0.0,2.0,64,0.00,,,0.00,860.0,meteobridge,2013-08-30 19:25:00,
2013-08-30 14:30:00,92.3,77.9,29.92,SSW,208,0.0,0.9,63,0.00,,,0.00,865.0,meteobridge,2013-08-30 19:30:00,
2013-08-30 14:35:00,92.3,77.4,29.92,SW,222,0.0,0.0,62,0.00,,,0.00,847.0,meteobridge,2013-08-30 19:35:00,
2013-08-30 14:40:00,92.3,77.4,29.92,SW,221,0.0,0.0,62,0.00,,,0.00,844.0,meteobridge,2013-08-30 19:40:00,
2013-08-30 14:46:00,92.8,77.9,29.91,SW,223,0.0,0.0,62,0.00,,,0.00,853.0,meteobridge,2013-08-30 19:46:00,
2013-08-30 14:51:00,92.8,76.5,29.91,West,260,0.0,0.0,59,0.00,,,0.00,853.0,meteobridge,2013-08-30 19:51:00,
2013-08-30 14:56:00,92.7,76.8,29.91,WSW,249,0.0,0.9,60,0.00,,,0.00,860.0,meteobridge,2013-08-30 19:56:00,
2013-08-30 15:01:00,92.7,77.7,29.91,WSW,240,0.0,0.0,62,0.00,,,0.00,849.0,meteobridge,2013-08-30 20:01:00,
2013-08-30 15:06:00,93.2,78.3,29.91,West,264,0.0,0.0,62,0.00,,,0.00,882.0,meteobridge,2013-08-30 20:06:00,
2013-08-30 15:11:00,92.8,76.5,29.91,WSW,245,0.0,0.9,59,0.00,,,0.00,858.0,meteobridge,2013-08-30 20:11:00,
2013-08-30 15:16:00,92.7,77.7,29.90,WSW,244,0.0,2.9,62,0.00,,,0.00,842.0,meteobridge,2013-08-30 20:16:00,
2013-08-30 15:21:00,93.4,78.8,29.90,SW,217,0.0,6.0,63,0.00,,,0.00,817.0,meteobridge,2013-08-30 20:21:00,
2013-08-30 15:26:00,93.4,78.4,29.90,SW,228,0.0,2.9,62,0.00,,,0.00,777.0,meteobridge,2013-08-30 20:26:00,
2013-08-30 15:31:00,93.6,78.6,29.89,SW,215,0.0,0.0,62,0.00,,,0.00,752.0,meteobridge,2013-08-30 20:31:00,
2013-08-30 15:36:00,93.4,77.4,29.89,WSW,244,0.9,0.9,60,0.00,,,0.00,751.0,meteobridge,2013-08-30 20:36:00,
2013-08-30 15:41:00,93.4,78.4,29.89,SSW,208,2.0,4.0,62,0.00,,,0.00,738.0,meteobridge,2013-08-30 20:41:00,
2013-08-30 15:47:00,93.0,76.6,29.89,SSW,212,0.0,4.9,59,0.00,,,0.00,737.0,meteobridge,2013-08-30 20:47:00,
2013-08-30 15:52:00,93.4,77.4,29.89,SSW,200,4.0,4.0,60,0.00,,,0.00,744.0,meteobridge,2013-08-30 20:52:00,
2013-08-30 15:57:00,93.4,76.8,29.89,SW,223,0.0,0.0,59,0.00,,,0.00,714.0,meteobridge,2013-08-30 20:57:00,
2013-08-30 16:02:00,93.7,76.3,29.88,SSW,213,0.0,0.0,57,0.00,,,0.00,731.0,meteobridge,2013-08-30 21:02:00,
2013-08-30 16:07:00,93.9,76.3,29.88,WSW,244,0.0,0.9,57,0.00,,,0.00,747.0,meteobridge,2013-08-30 21:07:00,
2013-08-30 16:12:00,93.7,76.6,29.88,WSW,240,0.0,0.9,58,0.00,,,0.00,721.0,meteobridge,2013-08-30 21:12:00,
2013-08-30 16:17:00,93.6,76.1,29.87,SSW,208,0.0,2.9,57,0.00,,,0.00,694.0,meteobridge,2013-08-30 21:17:00,
2013-08-30 16:22:00,93.6,77.0,29.87,SSE,155,8.1,8.9,59,0.00,,,0.00,652.0,meteobridge,2013-08-30 21:22:00,
2013-08-30 16:27:00,93.2,77.2,29.87,South,184,4.9,10.1,60,0.00,,,0.00,631.0,meteobridge,2013-08-30 21:27:00,
2013-08-30 16:32:00,93.0,77.0,29.86,SE,144,6.0,8.9,60,0.00,,,0.00,626.0,meteobridge,2013-08-30 21:32:00,
2013-08-30 16:37:00,92.8,76.5,29.86,SE,146,6.9,8.9,59,0.00,,,0.00,591.0,meteobridge,2013-08-30 21:37:00,
2013-08-30 16:42:00,93.0,77.0,29.86,SE,135,6.9,8.1,60,0.00,,,0.00,566.0,meteobridge,2013-08-30 21:42:00,
2013-08-30 16:47:00,93.0,78.1,29.86,SSE,165,6.9,8.9,62,0.00,,,0.00,497.0,meteobridge,2013-08-30 21:47:00,
2013-08-30 16:52:00,92.3,77.4,29.86,SSE,165,8.1,10.1,62,0.00,,,0.00,520.0,meteobridge,2013-08-30 21:52:00,
2013-08-30 16:57:00,92.3,77.9,29.86,SE,146,6.9,8.1,63,0.00,,,0.00,504.0,meteobridge,2013-08-30 21:57:00,
2013-08-30 17:02:00,92.1,77.2,29.86,SSE,155,13.0,16.1,62,0.00,,,0.00,508.0,meteobridge,2013-08-30 22:02:00,
2013-08-30 17:07:00,92.1,77.7,29.86,South,186,4.9,8.1,63,0.00,,,0.00,411.0,meteobridge,2013-08-30 22:07:00,
2013-08-30 17:12:00,91.2,75.9,29.86,SSE,159,6.9,13.0,61,0.00,,,0.00,125.0,meteobridge,2013-08-30 22:12:00,
2013-08-30 17:17:00,91.0,77.5,29.86,SSE,165,11.0,11.0,65,0.00,,,0.00,422.0,meteobridge,2013-08-30 22:17:00,
2013-08-30 17:22:00,91.2,76.8,29.86,SSE,155,8.9,14.1,63,0.00,,,0.00,415.0,meteobridge,2013-08-30 22:22:00,
2013-08-30 17:27:00,91.0,76.3,29.86,SSE,161,10.1,14.1,62,0.00,,,0.00,403.0,meteobridge,2013-08-30 22:27:00,
2013-08-30 17:32:00,90.9,77.5,29.85,SSE,165,6.0,12.1,65,0.00,,,0.00,380.0,meteobridge,2013-08-30 22:32:00,
2013-08-30 17:37:00,90.9,77.5,29.85,South,179,8.1,15.0,65,0.00,,,0.00,366.0,meteobridge,2013-08-30 22:37:00,
2013-08-30 17:42:00,90.5,78.1,29.85,SSE,167,10.1,11.0,67,0.00,,,0.00,348.0,meteobridge,2013-08-30 22:42:00,
2013-08-30 17:47:00,90.1,78.1,29.85,SSE,166,11.0,16.1,68,0.00,,,0.00,325.0,meteobridge,2013-08-30 22:47:00,
2013-08-30 17:53:00,89.8,77.7,29.85,SSE,162,10.1,13.0,68,0.00,,,0.00,308.0,meteobridge,2013-08-30 22:53:00,
2013-08-30 17:58:00,89.8,77.7,29.85,SE,136,10.1,16.1,68,0.00,,,0.00,290.0,meteobridge,2013-08-30 22:58:00,
2013-08-30 18:03:00,89.8,77.4,29.85,SE,146,17.0,17.0,67,0.00,,,0.00,271.0,meteobridge,2013-08-30 23:03:00,
2013-08-30 18:08:00,89.4,77.5,29.85,SE,146,6.9,13.0,68,0.00,,,0.00,250.0,meteobridge,2013-08-30 23:08:00,
2013-08-30 18:13:00,89.2,76.8,29.85,SSE,161,6.9,12.1,67,0.00,,,0.00,234.0,meteobridge,2013-08-30 23:13:00,
2013-08-30 18:18:00,89.1,76.6,29.85,SSE,158,10.1,15.0,67,0.00,,,0.00,218.0,meteobridge,2013-08-30 23:18:00,
2013-08-30 18:23:00,88.9,76.1,29.85,SSE,166,11.0,12.1,66,0.00,,,0.00,200.0,meteobridge,2013-08-30 23:23:00,
2013-08-30 18:28:00,88.5,76.1,29.85,South,177,6.9,13.0,67,0.00,,,0.00,181.0,meteobridge,2013-08-30 23:28:00,
2013-08-30 18:33:00,88.3,75.9,29.85,SSE,155,8.1,12.1,67,0.00,,,0.00,158.0,meteobridge,2013-08-30 23:33:00,
2013-08-30 18:38:00,88.2,76.3,29.85,SSE,168,8.9,11.0,68,0.00,,,0.00,146.0,meteobridge,2013-08-30 23:38:00,
2013-08-30 18:43:00,87.6,75.7,29.85,SSE,165,11.0,16.1,68,0.00,,,0.00,72.0,meteobridge,2013-08-30 23:43:00,
2013-08-30 18:48:00,87.4,75.9,29.86,SSE,167,6.9,8.9,69,0.00,,,0.00,60.0,meteobridge,2013-08-30 23:48:00,
2013-08-30 18:53:00,87.3,76.3,29.86,South,169,10.1,10.1,70,0.00,,,0.00,56.0,meteobridge,2013-08-30 23:53:00,
2013-08-30 18:58:00,87.1,75.7,29.86,South,186,4.0,12.1,69,0.00,,,0.00,51.0,meteobridge,2013-08-30 23:58:00,
2013-08-30 19:03:00,86.7,76.1,29.86,SSE,151,6.0,8.1,71,0.00,,,0.00,46.0,meteobridge,2013-08-31 00:03:00,
2013-08-30 19:08:00,86.5,75.6,29.86,SSE,161,6.0,10.1,70,0.00,,,0.00,44.0,meteobridge,2013-08-31 00:08:00,
2013-08-30 19:13:00,86.4,75.9,29.86,SSE,162,8.9,8.9,71,0.00,,,0.00,37.0,meteobridge,2013-08-31 00:13:00,
2013-08-30 19:18:00,86.0,75.6,29.86,SSE,164,10.1,11.0,71,0.00,,,0.00,32.0,meteobridge,2013-08-31 00:18:00,
2013-08-30 19:23:00,85.8,75.7,29.86,SSE,163,6.9,11.0,72,0.00,,,0.00,26.0,meteobridge,2013-08-31 00:23:00,
2013-08-30 19:28:00,85.6,75.9,29.86,South,170,8.1,10.1,73,0.00,,,0.00,21.0,meteobridge,2013-08-31 00:28:00,
2013-08-30 19:33:00,85.3,75.6,29.86,SE,141,8.9,10.1,73,0.00,,,0.00,16.0,meteobridge,2013-08-31 00:33:00,
2013-08-30 19:38:00,84.9,75.7,29.86,SSE,159,4.9,8.1,74,0.00,,,0.00,12.0,meteobridge,2013-08-31 00:38:00,
2013-08-30 19:43:00,84.7,75.6,29.86,SSE,161,8.9,11.0,74,0.00,,,0.00,7.0,meteobridge,2013-08-31 00:43:00,
2013-08-30 19:49:00,84.7,75.9,29.86,South,169,2.9,8.1,75,0.00,,,0.00,5.0,meteobridge,2013-08-31 00:49:00,
2013-08-30 19:54:00,84.4,75.6,29.86,South,178,6.0,8.9,75,0.00,,,0.00,0.0,meteobridge,2013-08-31 00:54:00,
2013-08-30 19:59:00,84.0,75.6,29.86,SSE,168,8.1,10.1,76,0.00,,,0.00,0.0,meteobridge,2013-08-31 00:59:00,
2013-08-30 20:04:00,84.0,75.6,29.86,South,178,6.0,8.9,76,0.00,,,0.00,0.0,meteobridge,2013-08-31 01:04:00,
2013-08-30 20:09:00,83.8,75.9,29.86,SSE,156,4.0,8.1,77,0.00,,,0.00,0.0,meteobridge,2013-08-31 01:09:00,
2013-08-30 20:14:00,83.5,75.6,29.86,SSE,155,6.0,6.9,77,0.00,,,0.00,0.0,meteobridge,2013-08-31 01:14:00,
2013-08-30 20:19:00,83.3,75.7,29.86,SSE,158,2.9,6.9,78,0.00,,,0.00,0.0,meteobridge,2013-08-31 01:19:00,
2013-08-30 20:24:00,82.9,75.7,29.86,South,170,4.0,4.9,79,0.00,,,0.00,0.0,meteobridge,2013-08-31 01:24:00,
2013-08-30 20:29:00,82.9,75.7,29.86,SSE,151,2.0,4.0,79,0.00,,,0.00,0.0,meteobridge,2013-08-31 01:29:00,
2013-08-30 20:34:00,82.6,75.7,29.86,South,171,0.0,0.0,80,0.00,,,0.00,0.0,meteobridge,2013-08-31 01:34:00,
2013-08-30 20:39:00,82.2,75.7,29.86,SSE,163,0.0,0.0,81,0.00,,,0.00,0.0,meteobridge,2013-08-31 01:39:00,
2013-08-30 20:44:00,82.0,75.6,29.86,SSE,163,0.0,0.0,81,0.00,,,0.00,0.0,meteobridge,2013-08-31 01:44:00,
2013-08-30 20:50:00,81.9,75.7,29.86,South,170,0.0,0.0,82,0.00,,,0.00,0.0,meteobridge,2013-08-31 01:50:00,
2013-08-30 20:55:00,81.5,75.4,29.86,South,171,0.0,0.0,82,0.00,,,0.00,0.0,meteobridge,2013-08-31 01:55:00,
2013-08-30 21:00:00,81.3,75.7,29.86,SSE,160,0.0,0.9,83,0.00,,,0.00,0.0,meteobridge,2013-08-31 02:00:00,
2013-08-30 21:05:00,81.1,75.6,29.86,SSE,159,0.0,0.9,83,0.00,,,0.00,0.0,meteobridge,2013-08-31 02:05:00,
2013-08-30 21:10:00,81.0,75.7,29.86,South,178,0.0,0.0,84,0.00,,,0.00,0.0,meteobridge,2013-08-31 02:10:00,
2013-08-30 21:15:00,80.8,75.6,29.87,SSE,155,0.0,0.0,84,0.00,,,0.00,0.0,meteobridge,2013-08-31 02:15:00,
2013-08-30 21:20:00,80.4,75.6,29.87,South,171,0.0,0.0,85,0.00,,,0.00,0.0,meteobridge,2013-08-31 02:20:00,
2013-08-30 21:25:00,80.4,75.6,29.87,South,171,0.0,0.0,85,0.00,,,0.00,0.0,meteobridge,2013-08-31 02:25:00,
2013-08-30 21:31:00,80.2,75.4,29.86,South,173,0.0,0.0,85,0.00,,,0.00,0.0,meteobridge,2013-08-31 02:31:00,
2013-08-30 21:36:00,80.2,75.7,29.86,South,170,0.0,0.0,86,0.00,,,0.00,0.0,meteobridge,2013-08-31 02:36:00,
2013-08-30 21:41:00,80.1,75.6,29.86,SSE,166,0.0,0.0,86,0.00,,,0.00,0.0,meteobridge,2013-08-31 02:41:00,
2013-08-30 21:46:00,79.9,75.7,29.87,South,173,0.0,0.0,87,0.00,,,0.00,0.0,meteobridge,2013-08-31 02:46:00,
2013-08-30 21:51:00,79.9,75.7,29.87,South,172,0.0,0.0,87,0.00,,,0.00,0.0,meteobridge,2013-08-31 02:51:00,
2013-08-30 21:56:00,79.5,75.4,29.87,SSE,168,0.0,0.0,87,0.00,,,0.00,0.0,meteobridge,2013-08-31 02:56:00,
2013-08-30 22:01:00,79.3,75.6,29.88,SSE,166,0.0,0.0,88,0.00,,,0.00,0.0,meteobridge,2013-08-31 03:01:00,
2013-08-30 22:06:00,79.3,75.6,29.88,SSE,163,0.0,0.0,88,0.00,,,0.00,0.0,meteobridge,2013-08-31 03:06:00,
2013-08-30 22:12:00,79.3,75.6,29.88,SSE,165,0.0,0.0,88,0.00,,,0.00,0.0,meteobridge,2013-08-31 03:12:00,
2013-08-30 22:17:00,79.3,75.6,29.88,SSE,167,0.0,0.0,88,0.00,,,0.00,0.0,meteobridge,2013-08-31 03:17:00,
2013-08-30 22:22:00,79.3,75.6,29.88,SSE,165,0.0,0.0,88,0.00,,,0.00,0.0,meteobridge,2013-08-31 03:22:00,
2013-08-30 22:27:00,79.3,75.6,29.88,South,169,0.0,0.0,88,0.00,,,0.00,0.0,meteobridge,2013-08-31 03:27:00,
2013-08-30 22:32:00,79.3,75.7,29.88,South,170,0.0,0.0,89,0.00,,,0.00,0.0,meteobridge,2013-08-31 03:32:00,
2013-08-30 22:37:00,79.2,75.6,29.88,South,179,0.0,0.0,89,0.00,,,0.00,0.0,meteobridge,2013-08-31 03:37:00,
2013-08-30 22:43:00,79.2,75.6,29.88,South,175,0.0,0.0,89,0.00,,,0.00,0.0,meteobridge,2013-08-31 03:43:00,
2013-08-30 22:48:00,79.2,75.6,29.88,South,174,0.0,0.0,89,0.00,,,0.00,0.0,meteobridge,2013-08-31 03:48:00,
2013-08-30 22:53:00,79.2,75.6,29.88,South,169,0.0,0.0,89,0.00,,,0.00,0.0,meteobridge,2013-08-31 03:53:00,
2013-08-30 22:58:00,79.0,75.4,29.88,SSE,168,0.0,0.0,89,0.00,,,0.00,0.0,meteobridge,2013-08-31 03:58:00,
2013-08-30 23:01:00,79.0,75.7,29.87,SSE,168,0.0,0.0,90,0.00,,,0.00,0.0,meteobridge,2013-08-31 04:01:00,
2013-08-30 23:02:00,79.0,75.4,29.87,SSE,168,0.0,0.0,89,0.00,,,0.00,0.0,meteobridge,2013-08-31 04:02:00,
2013-08-30 23:03:00,78.8,75.6,29.87,South,169,0.0,0.0,90,0.00,,,0.00,0.0,meteobridge,2013-08-31 04:03:00,
2013-08-30 23:06:00,78.8,75.6,29.87,South,169,0.0,0.0,90,0.00,,,0.00,0.0,meteobridge,2013-08-31 04:06:00,
2013-08-30 23:11:00,78.6,75.4,29.87,South,173,0.0,0.0,90,0.00,,,0.00,0.0,meteobridge,2013-08-31 04:11:00,
2013-08-30 23:17:00,78.8,75.6,29.87,South,169,0.0,0.0,90,0.00,,,0.00,0.0,meteobridge,2013-08-31 04:17:00,
2013-08-30 23:22:00,78.6,75.4,29.87,SSE,165,0.0,0.0,90,0.00,,,0.00,0.0,meteobridge,2013-08-31 04:22:00,
2013-08-30 23:27:00,78.6,75.4,29.87,South,178,0.0,0.0,90,0.00,,,0.00,0.0,meteobridge,2013-08-31 04:27:00,
2013-08-30 23:32:00,78.6,75.4,29.86,South,177,0.0,0.0,90,0.00,,,0.00,0.0,meteobridge,2013-08-31 04:32:00,
2013-08-30 23:37:00,78.6,75.4,29.86,SSE,164,0.0,0.0,90,0.00,,,0.00,0.0,meteobridge,2013-08-31 04:37:00,
2013-08-30 23:42:00,78.4,75.2,29.86,SSE,161,0.0,0.0,90,0.00,,,0.00,0.0,meteobridge,2013-08-31 04:42:00,
2013-08-30 23:47:00,78.4,75.6,29.86,SSE,160,0.0,0.0,91,0.00,,,0.00,0.0,meteobridge,2013-08-31 04:47:00,
2013-08-30 23:52:00,78.3,75.4,29.86,SSE,162,0.0,0.0,91,0.00,,,0.00,0.0,meteobridge,2013-08-31 04:52:00,
2013-08-30 23:57:00,78.3,75.4,29.86,South,172,0.0,0.0,91,0.00,,,0.00,0.0,meteobridge,2013-08-31 04:57:00,